Time,TemperatureF,DewpointF,PressureIn,WindDirection,WindDirectionDegrees,WindSpeedMPH,WindSpeedGustMPH,Humidity,HourlyPrecipIn,Conditions,Clouds,dailyrainin,SoftwareType,DateUTC
2013-06-08 00:01:00,65.7,61.7,29.89,ESE,112,0.0,0.0,87,0.00,,,0.00,WUHU21623XXSP,2013-06-08 04:01:00,
2013-06-08 00:06:00,65.5,61.5,29.89,ESE,112,0.0,0.0,87,0.00,,,0.00,WUHU21623XXSP,2013-06-08 04:06:00,
2013-06-08 00:12:00,65.5,61.5,29.89,ESE,112,0.0,0.0,87,0.00,,,0.00,WUHU21623XXSP,2013-06-08 04:12:00,
2013-06-08 00:17:00,65.5,61.5,29.89,ESE,112,0.0,0.0,87,0.00,,,0.00,WUHU21623XXSP,2013-06-08 04:17:00,
2013-06-08 00:22:00,65.5,61.5,29.89,ESE,112,0.0,0.0,87,0.00,,,0.00,WUHU21623XXSP,2013-06-08 04:22:00,
2013-06-08 00:27:00,65.3,61.3,29.89,South,180,0.0,0.0,87,0.00,,,0.00,WUHU21623XXSP,2013-06-08 04:27:00,
2013-06-08 00:32:00,65.3,61.3,29.89,South,180,0.0,0.0,87,0.00,,,0.00,WUHU21623XXSP,2013-06-08 04:32:00,
2013-06-08 00:37:00,65.3,61.3,29.89,South,180,0.0,0.0,87,0.00,,,0.00,WUHU21623XXSP,2013-06-08 04:37:00,
2013-06-08 00:42:00,65.1,61.2,29.89,ESE,112,0.0,0.0,87,0.00,,,0.00,WUHU21623XXSP,2013-06-08 04:42:00,
2013-06-08 00:47:00,65.1,61.2,29.89,ESE,112,0.0,0.0,87,0.00,,,0.00,WUHU21623XXSP,2013-06-08 04:47:00,
2013-06-08 00:52:00,65.1,61.2,29.89,ESE,112,0.0,0.0,87,0.00,,,0.00,WUHU21623XXSP,2013-06-08 04:52:00,
2013-06-08 00:57:00,65.3,61.3,29.89,South,180,0.0,0.0,87,0.00,,,0.00,WUHU21623XXSP,2013-06-08 04:57:00,
2013-06-08 01:02:00,65.3,61.3,29.89,ESE,112,0.0,0.0,87,0.00,,,0.00,WUHU21623XXSP,2013-06-08 05:02:00,
2013-06-08 01:07:00,65.1,61.2,29.89,ESE,112,0.0,0.0,87,0.00,,,0.00,WUHU21623XXSP,2013-06-08 05:07:00,
2013-06-08 01:12:00,65.1,61.2,29.89,South,180,0.0,0.0,87,0.00,,,0.00,WUHU21623XXSP,2013-06-08 05:12:00,
2013-06-08 01:17:00,65.1,61.2,29.89,East,90,0.0,0.0,87,0.00,,,0.00,WUHU21623XXSP,2013-06-08 05:17:00,
2013-06-08 01:22:00,65.1,61.2,29.89,ESE,112,0.0,0.0,87,0.00,,,0.00,WUHU21623XXSP,2013-06-08 05:22:00,
2013-06-08 01:27:00,64.9,61.0,29.89,ESE,112,0.0,0.0,87,0.00,,,0.00,WUHU21623XXSP,2013-06-08 05:27:00,
2013-06-08 01:32:00,64.8,60.8,29.89,ESE,112,0.0,0.0,87,0.00,,,0.00,WUHU21623XXSP,2013-06-08 05:32:00,
2013-06-08 01:37:00,64.8,60.8,29.89,ESE,112,0.0,0.0,87,0.00,,,0.00,WUHU21623XXSP,2013-06-08 05:37:00,
2013-06-08 01:42:00,64.6,60.7,29.89,East,90,0.0,0.0,87,0.00,,,0.00,WUHU21623XXSP,2013-06-08 05:42:00,
2013-06-08 01:47:00,64.6,60.7,29.89,ESE,112,0.0,0.0,87,0.00,,,0.00,WUHU21623XXSP,2013-06-08 05:47:00,
2013-06-08 01:52:00,64.8,60.8,29.89,NNE,22,0.0,0.0,87,0.00,,,0.00,WUHU21623XXSP,2013-06-08 05:52:00,
2013-06-08 01:57:00,64.9,61.0,29.89,East,90,0.0,0.0,87,0.00,,,0.00,WUHU21623XXSP,2013-06-08 05:57:00,
2013-06-08 02:02:00,64.9,61.0,29.89,NNE,22,0.0,0.0,87,0.00,,,0.00,WUHU21623XXSP,2013-06-08 06:02:00,
2013-06-08 02:07:00,65.1,61.2,29.89,ESE,112,0.0,0.0,87,0.00,,,0.00,WUHU21623XXSP,2013-06-08 06:07:00,
2013-06-08 02:12:00,65.1,61.2,29.89,North,0,0.0,0.0,87,0.00,,,0.00,WUHU21623XXSP,2013-06-08 06:12:00,
2013-06-08 02:17:00,64.9,61.0,29.89,East,90,0.0,0.0,87,0.00,,,0.00,WUHU21623XXSP,2013-06-08 06:17:00,
2013-06-08 02:22:00,65.1,61.2,29.89,NNE,22,0.0,0.0,87,0.00,,,0.00,WUHU21623XXSP,2013-06-08 06:22:00,
2013-06-08 02:27:00,65.1,61.2,29.89,NNE,22,0.0,0.0,87,0.00,,,0.00,WUHU21623XXSP,2013-06-08 06:27:00,
2013-06-08 02:32:00,64.9,61.0,29.89,NNE,22,0.0,0.0,87,0.00,,,0.00,WUHU21623XXSP,2013-06-08 06:32:00,
2013-06-08 02:37:00,64.9,61.0,29.89,ESE,112,0.0,0.0,87,0.00,,,0.00,WUHU21623XXSP,2013-06-08 06:37:00,
2013-06-08 02:42:00,64.9,61.0,29.89,East,90,0.0,0.0,87,0.00,,,0.00,WUHU21623XXSP,2013-06-08 06:42:00,
2013-06-08 02:47:00,64.9,61.0,29.89,ESE,112,0.0,0.0,87,0.00,,,0.00,WUHU21623XXSP,2013-06-08 06:47:00,
2013-06-08 02:52:00,64.9,61.0,29.89,East,90,0.0,0.0,87,0.00,,,0.00,WUHU21623XXSP,2013-06-08 06:52:00,
2013-06-08 02:57:00,65.1,61.2,29.89,NNE,22,0.0,0.0,87,0.00,,,0.00,WUHU21623XXSP,2013-06-08 06:57:00,
2013-06-08 03:02:00,64.9,61.0,29.89,ESE,112,0.0,0.0,87,0.00,,,0.00,WUHU21623XXSP,2013-06-08 07:02:00,
2013-06-08 03:07:00,64.9,61.0,29.89,ESE,112,0.0,0.0,87,0.00,,,0.00,WUHU21623XXSP,2013-06-08 07:07:00,
2013-06-08 03:12:00,64.9,61.0,29.89,ESE,112,0.0,0.0,87,0.00,,,0.00,WUHU21623XXSP,2013-06-08 07:12:00,
2013-06-08 03:17:00,64.9,61.0,29.89,ESE,112,0.0,0.0,87,0.00,,,0.00,WUHU21623XXSP,2013-06-08 07:17:00,
2013-06-08 03:22:00,64.9,61.0,29.89,South,180,0.0,0.0,87,0.00,,,0.00,WUHU21623XXSP,2013-06-08 07:22:00,
2013-06-08 03:27:00,64.8,60.8,29.89,South,180,0.0,0.0,87,0.00,,,0.00,WUHU21623XXSP,2013-06-08 07:27:00,
2013-06-08 03:32:00,64.8,60.8,29.89,South,180,0.0,0.0,87,0.00,,,0.00,WUHU21623XXSP,2013-06-08 07:32:00,
2013-06-08 03:37:00,64.8,60.8,29.90,SSW,202,0.0,0.0,87,0.00,,,0.00,WUHU21623XXSP,2013-06-08 07:37:00,
2013-06-08 03:42:00,64.8,60.8,29.90,SSW,202,0.0,0.0,87,0.00,,,0.00,WUHU21623XXSP,2013-06-08 07:42:00,
2013-06-08 03:47:00,64.6,60.7,29.90,South,180,0.0,0.0,87,0.00,,,0.00,WUHU21623XXSP,2013-06-08 07:47:00,
2013-06-08 03:53:00,64.6,60.7,29.91,South,180,0.0,0.0,87,0.00,,,0.00,WUHU21623XXSP,2013-06-08 07:53:00,
2013-06-08 03:58:00,64.6,60.7,29.90,South,180,0.0,0.0,87,0.00,,,0.00,WUHU21623XXSP,2013-06-08 07:58:00,
2013-06-08 04:03:00,64.4,60.5,29.91,South,180,0.0,0.0,87,0.00,,,0.00,WUHU21623XXSP,2013-06-08 08:03:00,
2013-06-08 04:08:00,64.4,60.5,29.90,East,90,0.0,0.0,87,0.00,,,0.00,WUHU21623XXSP,2013-06-08 08:08:00,
2013-06-08 04:13:00,64.6,60.7,29.91,ESE,112,0.0,0.0,87,0.00,,,0.00,WUHU21623XXSP,2013-06-08 08:13:00,
2013-06-08 04:18:00,64.6,60.7,29.91,ESE,112,0.0,0.0,87,0.00,,,0.00,WUHU21623XXSP,2013-06-08 08:18:00,
2013-06-08 04:23:00,64.6,60.7,29.91,ESE,112,0.0,0.0,87,0.00,,,0.00,WUHU21623XXSP,2013-06-08 08:23:00,
2013-06-08 04:28:00,64.4,60.5,29.91,SSW,202,0.0,0.0,87,0.00,,,0.00,WUHU21623XXSP,2013-06-08 08:28:00,
2013-06-08 04:33:00,64.2,60.3,29.91,ESE,112,0.0,0.0,87,0.00,,,0.00,WUHU21623XXSP,2013-06-08 08:33:00,
2013-06-08 04:38:00,64.2,60.3,29.91,East,90,0.0,0.0,87,0.00,,,0.00,WUHU21623XXSP,2013-06-08 08:38:00,
2013-06-08 04:43:00,64.2,60.3,29.91,ESE,112,0.0,0.0,87,0.00,,,0.00,WUHU21623XXSP,2013-06-08 08:43:00,
2013-06-08 04:48:00,64.2,60.3,29.91,ESE,112,0.0,0.0,87,0.00,,,0.00,WUHU21623XXSP,2013-06-08 08:48:00,
2013-06-08 04:53:00,64.2,60.3,29.91,East,90,0.0,0.0,87,0.00,,,0.00,WUHU21623XXSP,2013-06-08 08:53:00,
2013-06-08 04:58:00,64.2,60.3,29.92,ESE,112,0.0,0.0,87,0.00,,,0.00,WUHU21623XXSP,2013-06-08 08:58:00,
2013-06-08 05:03:00,64.2,60.3,29.92,SSW,202,0.0,0.0,87,0.00,,,0.00,WUHU21623XXSP,2013-06-08 09:03:00,
2013-06-08 05:08:00,64.2,60.3,29.92,ESE,112,0.0,0.0,87,0.00,,,0.00,WUHU21623XXSP,2013-06-08 09:08:00,
2013-06-08 05:13:00,64.2,60.3,29.93,ESE,112,0.0,0.0,87,0.00,,,0.00,WUHU21623XXSP,2013-06-08 09:13:00,
2013-06-08 05:18:00,64.2,60.3,29.93,West,270,0.0,0.0,87,0.00,,,0.00,WUHU21623XXSP,2013-06-08 09:18:00,
2013-06-08 05:23:00,64.2,60.3,29.93,ESE,112,0.0,0.0,87,0.00,,,0.00,WUHU21623XXSP,2013-06-08 09:23:00,
2013-06-08 05:28:00,64.2,60.3,29.93,ESE,112,0.0,0.0,87,0.00,,,0.00,WUHU21623XXSP,2013-06-08 09:28:00,
2013-06-08 05:33:00,64.2,60.3,29.93,South,180,0.0,0.0,87,0.00,,,0.00,WUHU21623XXSP,2013-06-08 09:33:00,
2013-06-08 05:38:00,64.2,60.3,29.93,South,180,0.0,0.0,87,0.00,,,0.00,WUHU21623XXSP,2013-06-08 09:38:00,
2013-06-08 05:43:00,64.2,60.3,29.93,South,180,0.0,0.0,87,0.00,,,0.00,WUHU21623XXSP,2013-06-08 09:43:00,
2013-06-08 05:48:00,64.2,60.3,29.93,ESE,112,0.0,0.0,87,0.00,,,0.00,WUHU21623XXSP,2013-06-08 09:48:00,
2013-06-08 05:53:00,64.2,60.3,29.94,ESE,112,0.0,0.0,87,0.00,,,0.00,WUHU21623XXSP,2013-06-08 09:53:00,
2013-06-08 05:58:00,64.2,60.3,29.94,ESE,112,0.0,0.0,87,0.00,,,0.00,WUHU21623XXSP,2013-06-08 09:58:00,
2013-06-08 06:03:00,64.2,60.3,29.94,SSW,202,0.0,0.0,87,0.00,,,0.00,WUHU21623XXSP,2013-06-08 10:03:00,
2013-06-08 06:08:00,64.4,60.5,29.94,ESE,112,0.0,0.0,87,0.00,,,0.00,WUHU21623XXSP,2013-06-08 10:08:00,
2013-06-08 06:13:00,64.6,60.7,29.94,South,180,0.0,0.0,87,0.00,,,0.00,WUHU21623XXSP,2013-06-08 10:13:00,
2013-06-08 06:18:00,64.6,60.7,29.94,South,180,0.0,0.0,87,0.00,,,0.00,WUHU21623XXSP,2013-06-08 10:18:00,
2013-06-08 06:23:00,64.2,60.3,29.94,South,180,0.0,0.0,87,0.00,,,0.00,WUHU21623XXSP,2013-06-08 10:23:00,
2013-06-08 06:28:00,64.2,60.3,29.94,ESE,112,0.0,0.0,87,0.00,,,0.00,WUHU21623XXSP,2013-06-08 10:28:00,
2013-06-08 06:33:00,64.6,60.7,29.94,South,180,0.0,0.0,87,0.00,,,0.00,WUHU21623XXSP,2013-06-08 10:33:00,
2013-06-08 06:38:00,64.6,60.7,29.95,SSW,202,0.0,0.0,87,0.00,,,0.00,WUHU21623XXSP,2013-06-08 10:38:00,
2013-06-08 06:43:00,64.6,60.7,29.95,South,180,0.0,0.0,87,0.00,,,0.00,WUHU21623XXSP,2013-06-08 10:43:00,
2013-06-08 06:48:00,64.4,60.5,29.96,ESE,112,0.0,0.0,87,0.00,,,0.00,WUHU21623XXSP,2013-06-08 10:48:00,
2013-06-08 06:53:00,64.2,60.3,29.96,East,90,0.0,0.0,87,0.00,,,0.00,WUHU21623XXSP,2013-06-08 10:53:00,
2013-06-08 06:58:00,64.2,60.3,29.96,West,270,0.0,0.0,87,0.00,,,0.00,WUHU21623XXSP,2013-06-08 10:58:00,
2013-06-08 07:03:00,64.6,60.7,29.96,SSW,202,0.0,0.0,87,0.00,,,0.00,WUHU21623XXSP,2013-06-08 11:03:00,
2013-06-08 07:08:00,64.6,60.7,29.96,East,90,0.0,0.0,87,0.00,,,0.00,WUHU21623XXSP,2013-06-08 11:08:00,
2013-06-08 07:13:00,64.6,60.7,29.96,East,90,0.0,0.0,87,0.00,,,0.00,WUHU21623XXSP,2013-06-08 11:13:00,
2013-06-08 07:18:00,64.8,60.8,29.96,West,270,0.0,0.0,87,0.00,,,0.00,WUHU21623XXSP,2013-06-08 11:18:00,
2013-06-08 07:23:00,64.6,60.7,29.96,ESE,112,0.0,0.0,87,0.00,,,0.00,WUHU21623XXSP,2013-06-08 11:23:00,
2013-06-08 07:28:00,64.6,60.7,29.96,East,90,0.0,0.0,87,0.00,,,0.00,WUHU21623XXSP,2013-06-08 11:28:00,
2013-06-08 07:33:00,64.6,60.7,29.97,SSW,202,0.0,0.0,87,0.00,,,0.00,WUHU21623XXSP,2013-06-08 11:33:00,
2013-06-08 07:38:00,64.6,60.7,29.97,ESE,112,0.0,0.0,87,0.00,,,0.00,WUHU21623XXSP,2013-06-08 11:38:00,
2013-06-08 07:43:00,64.6,60.7,29.97,South,180,0.0,0.0,87,0.00,,,0.00,WUHU21623XXSP,2013-06-08 11:43:00,
2013-06-08 07:48:00,64.8,60.8,29.97,ESE,112,0.0,0.0,87,0.00,,,0.00,WUHU21623XXSP,2013-06-08 11:48:00,
2013-06-08 07:53:00,64.9,61.0,29.97,West,270,0.0,0.0,87,0.00,,,0.00,WUHU21623XXSP,2013-06-08 11:53:00,
2013-06-08 07:58:00,64.9,61.0,29.98,ESE,112,0.0,0.0,87,0.00,,,0.00,WUHU21623XXSP,2013-06-08 11:58:00,
2013-06-08 08:03:00,65.1,61.2,29.98,South,180,0.0,0.0,87,0.00,,,0.00,WUHU21623XXSP,2013-06-08 12:03:00,
2013-06-08 08:08:00,65.1,61.2,29.98,NNE,22,0.0,0.0,87,0.00,,,0.00,WUHU21623XXSP,2013-06-08 12:08:00,
2013-06-08 08:13:00,65.5,61.5,29.98,SSW,202,0.0,0.0,87,0.00,,,0.00,WUHU21623XXSP,2013-06-08 12:13:00,
2013-06-08 08:18:00,66.2,62.2,29.98,NNE,22,0.0,0.0,87,0.00,,,0.00,WUHU21623XXSP,2013-06-08 12:18:00,
2013-06-08 08:23:00,66.4,62.3,29.99,South,180,0.0,0.0,87,0.00,,,0.00,WUHU21623XXSP,2013-06-08 12:23:00,
2013-06-08 08:28:00,66.4,62.3,29.99,SSW,202,0.0,0.0,87,0.00,,,0.00,WUHU21623XXSP,2013-06-08 12:28:00,
2013-06-08 08:33:00,66.2,62.2,29.99,South,180,0.0,0.0,87,0.00,,,0.00,WUHU21623XXSP,2013-06-08 12:33:00,
2013-06-08 08:38:00,66.2,62.2,29.99,ESE,112,0.0,0.0,87,0.00,,,0.00,WUHU21623XXSP,2013-06-08 12:38:00,
2013-06-08 08:43:00,66.4,62.3,29.99,NNE,22,0.0,0.0,87,0.00,,,0.00,WUHU21623XXSP,2013-06-08 12:43:00,
2013-06-08 08:48:00,66.4,62.3,30.00,ESE,112,0.0,0.0,87,0.00,,,0.00,WUHU21623XXSP,2013-06-08 12:48:00,
2013-06-08 08:53:00,66.0,62.0,30.00,North,0,0.0,0.0,87,0.00,,,0.00,WUHU21623XXSP,2013-06-08 12:53:00,
2013-06-08 08:58:00,66.0,62.0,30.00,West,270,0.0,0.0,87,0.00,,,0.00,WUHU21623XXSP,2013-06-08 12:58:00,
2013-06-08 09:03:00,66.2,62.2,30.00,SSW,202,0.0,0.0,87,0.00,,,0.00,WUHU21623XXSP,2013-06-08 13:03:00,
2013-06-08 09:08:00,66.4,62.3,30.00,South,180,0.0,0.0,87,0.00,,,0.00,WUHU21623XXSP,2013-06-08 13:08:00,
2013-06-08 09:13:00,66.6,62.5,30.00,South,180,0.0,0.0,87,0.00,,,0.00,WUHU21623XXSP,2013-06-08 13:13:00,
2013-06-08 09:18:00,66.7,62.7,30.00,SSW,202,0.0,0.0,87,0.00,,,0.00,WUHU21623XXSP,2013-06-08 13:18:00,
2013-06-08 09:23:00,66.9,62.9,30.01,North,0,0.0,0.0,87,0.00,,,0.00,WUHU21623XXSP,2013-06-08 13:23:00,
2013-06-08 09:28:00,67.1,63.1,30.01,South,180,0.0,0.0,87,0.00,,,0.00,WUHU21623XXSP,2013-06-08 13:28:00,
2013-06-08 09:33:00,67.3,63.6,30.01,West,270,0.0,0.0,88,0.00,,,0.00,WUHU21623XXSP,2013-06-08 13:33:00,
2013-06-08 09:38:00,67.3,63.6,30.02,WNW,292,0.0,0.0,88,0.00,,,0.00,WUHU21623XXSP,2013-06-08 13:38:00,
2013-06-08 09:43:00,67.6,63.9,30.02,West,270,0.0,0.0,88,0.00,,,0.00,WUHU21623XXSP,2013-06-08 13:43:00,
2013-06-08 09:48:00,67.6,63.9,30.02,West,270,0.0,0.0,88,0.00,,,0.00,WUHU21623XXSP,2013-06-08 13:48:00,
2013-06-08 09:53:00,67.6,63.9,30.02,WNW,292,0.0,0.0,88,0.00,,,0.00,WUHU21623XXSP,2013-06-08 13:53:00,
2013-06-08 09:58:00,67.8,64.1,30.02,East,90,0.0,0.0,88,0.00,,,0.00,WUHU21623XXSP,2013-06-08 13:58:00,
2013-06-08 10:03:00,68.2,64.1,30.02,NNE,22,0.0,0.0,87,0.00,,,0.00,WUHU21623XXSP,2013-06-08 14:03:00,
2013-06-08 10:08:00,68.7,64.7,30.02,South,180,0.0,0.0,87,0.00,,,0.00,WUHU21623XXSP,2013-06-08 14:08:00,
2013-06-08 10:13:00,70.9,66.8,30.02,South,180,0.0,0.0,87,0.00,,,0.00,WUHU21623XXSP,2013-06-08 14:13:00,
2013-06-08 10:18:00,71.8,67.0,30.02,South,180,0.0,0.0,85,0.00,,,0.00,WUHU21623XXSP,2013-06-08 14:18:00,
2013-06-08 10:23:00,72.0,67.2,30.02,WNW,292,0.0,0.0,85,0.00,,,0.00,WUHU21623XXSP,2013-06-08 14:23:00,
2013-06-08 10:28:00,71.2,66.5,30.01,WNW,292,0.0,0.0,85,0.00,,,0.00,WUHU21623XXSP,2013-06-08 14:28:00,
2013-06-08 10:33:00,71.2,66.5,30.02,WNW,292,0.0,0.0,85,0.00,,,0.00,WUHU21623XXSP,2013-06-08 14:33:00,
2013-06-08 10:38:00,70.7,66.3,30.02,SSW,202,0.0,0.0,86,0.00,,,0.00,WUHU21623XXSP,2013-06-08 14:38:00,
2013-06-08 10:43:00,72.5,68.1,30.02,WNW,292,0.0,0.0,86,0.00,,,0.00,WUHU21623XXSP,2013-06-08 14:43:00,
2013-06-08 10:48:00,73.0,68.3,30.02,West,270,0.0,0.0,85,0.00,,,0.00,WUHU21623XXSP,2013-06-08 14:48:00,
2013-06-08 10:53:00,73.2,67.8,30.02,South,180,0.0,0.0,83,0.00,,,0.00,WUHU21623XXSP,2013-06-08 14:53:00,
2013-06-08 10:58:00,72.9,67.1,30.02,WNW,292,0.0,0.0,82,0.00,,,0.00,WUHU21623XXSP,2013-06-08 14:58:00,
2013-06-08 11:03:00,72.5,66.7,30.03,North,0,0.0,0.0,82,0.00,,,0.00,WUHU21623XXSP,2013-06-08 15:03:00,
2013-06-08 11:08:00,73.6,68.1,30.03,West,270,0.0,0.0,83,0.00,,,0.00,WUHU21623XXSP,2013-06-08 15:08:00,
2013-06-08 11:13:00,75.0,68.9,30.03,WNW,292,0.0,0.0,81,0.00,,,0.00,WUHU21623XXSP,2013-06-08 15:13:00,
2013-06-08 11:18:00,75.7,68.8,30.03,North,0,0.0,0.0,79,0.00,,,0.00,WUHU21623XXSP,2013-06-08 15:18:00,
2013-06-08 11:23:00,75.7,69.2,30.03,West,270,0.0,0.0,80,0.00,,,0.00,WUHU21623XXSP,2013-06-08 15:23:00,
2013-06-08 11:28:00,75.9,68.2,30.03,SSW,202,0.0,0.0,77,0.00,,,0.00,WUHU21623XXSP,2013-06-08 15:28:00,
2013-06-08 11:33:00,76.3,67.8,30.03,East,90,0.0,0.0,75,0.00,,,0.00,WUHU21623XXSP,2013-06-08 15:33:00,
2013-06-08 11:38:00,76.8,67.9,30.03,East,90,0.0,0.0,74,0.00,,,0.00,WUHU21623XXSP,2013-06-08 15:38:00,
2013-06-08 11:43:00,77.7,68.7,30.03,NNE,22,0.0,0.0,74,0.00,,,0.00,WUHU21623XXSP,2013-06-08 15:43:00,
2013-06-08 11:48:00,78.3,69.2,30.03,SSW,202,0.0,0.0,74,0.00,,,0.00,WUHU21623XXSP,2013-06-08 15:48:00,
2013-06-08 11:53:00,78.3,68.9,30.04,WNW,292,0.0,0.0,73,0.00,,,0.00,WUHU21623XXSP,2013-06-08 15:53:00,
2013-06-08 11:58:00,78.1,67.5,30.04,SSW,202,0.0,0.0,70,0.00,,,0.00,WUHU21623XXSP,2013-06-08 15:58:00,
2013-06-08 12:03:00,77.5,67.4,30.04,SSW,202,0.0,0.0,71,0.00,,,0.00,WUHU21623XXSP,2013-06-08 16:03:00,
2013-06-08 12:08:00,76.6,67.7,30.03,WNW,292,0.0,0.0,74,0.00,,,0.00,WUHU21623XXSP,2013-06-08 16:08:00,
2013-06-08 12:13:00,75.6,67.5,30.04,WNW,292,0.0,0.0,76,0.00,,,0.00,WUHU21623XXSP,2013-06-08 16:13:00,
2013-06-08 12:18:00,75.4,66.9,30.04,West,270,0.0,0.0,75,0.00,,,0.00,WUHU21623XXSP,2013-06-08 16:18:00,
2013-06-08 12:23:00,77.2,69.4,30.04,SSW,202,0.0,0.0,77,0.00,,,0.00,WUHU21623XXSP,2013-06-08 16:23:00,
2013-06-08 12:28:00,77.4,67.6,30.04,South,180,0.0,0.0,72,0.00,,,0.00,WUHU21623XXSP,2013-06-08 16:28:00,
2013-06-08 12:33:00,77.5,67.8,30.04,WNW,292,0.0,0.0,72,0.00,,,0.00,WUHU21623XXSP,2013-06-08 16:33:00,
2013-06-08 12:38:00,77.5,68.6,30.04,SSW,202,0.0,0.0,74,0.00,,,0.00,WUHU21623XXSP,2013-06-08 16:38:00,
2013-06-08 12:43:00,79.5,69.3,30.03,SSW,202,0.0,0.0,71,0.00,,,0.00,WUHU21623XXSP,2013-06-08 16:43:00,
2013-06-08 12:48:00,80.2,70.0,30.04,SSW,202,0.0,0.0,71,0.00,,,0.00,WUHU21623XXSP,2013-06-08 16:48:00,
2013-06-08 12:53:00,79.9,67.9,30.04,East,90,0.0,0.0,67,0.00,,,0.00,WUHU21623XXSP,2013-06-08 16:53:00,
2013-06-08 12:58:00,80.6,69.1,30.04,East,90,0.0,0.0,68,0.00,,,0.00,WUHU21623XXSP,2013-06-08 16:58:00,
2013-06-08 13:03:00,80.8,68.3,30.04,East,90,0.0,0.0,66,0.00,,,0.00,WUHU21623XXSP,2013-06-08 17:03:00,
2013-06-08 13:08:00,79.5,67.6,30.04,West,270,0.0,0.0,67,0.00,,,0.00,WUHU21623XXSP,2013-06-08 17:08:00,
2013-06-08 13:13:00,79.3,67.8,30.04,SSW,202,0.0,0.0,68,0.00,,,0.00,WUHU21623XXSP,2013-06-08 17:13:00,
2013-06-08 13:18:00,78.6,67.6,30.04,West,270,0.0,0.0,69,0.00,,,0.00,WUHU21623XXSP,2013-06-08 17:18:00,
2013-06-08 13:23:00,78.4,67.9,30.03,WNW,292,0.0,0.0,70,0.00,,,0.00,WUHU21623XXSP,2013-06-08 17:23:00,
2013-06-08 13:28:00,79.5,68.0,30.02,West,270,0.0,0.0,68,0.00,,,0.00,WUHU21623XXSP,2013-06-08 17:28:00,
2013-06-08 13:33:00,79.3,67.4,30.03,North,0,0.0,0.0,67,0.00,,,0.00,WUHU21623XXSP,2013-06-08 17:33:00,
2013-06-08 13:38:00,78.8,67.3,30.03,West,270,0.0,0.0,68,0.00,,,0.00,WUHU21623XXSP,2013-06-08 17:38:00,
2013-06-08 13:43:00,78.8,68.2,30.03,WNW,292,0.0,0.0,70,0.00,,,0.00,WUHU21623XXSP,2013-06-08 17:43:00,
2013-06-08 13:48:00,79.5,68.5,30.03,West,270,0.0,0.0,69,0.00,,,0.00,WUHU21623XXSP,2013-06-08 17:48:00,
2013-06-08 13:53:00,80.4,68.5,30.02,NNE,22,0.0,0.0,67,0.00,,,0.00,WUHU21623XXSP,2013-06-08 17:53:00,
2013-06-08 13:58:00,81.1,67.8,30.03,ESE,112,0.0,0.0,64,0.00,,,0.00,WUHU21623XXSP,2013-06-08 17:58:00,
2013-06-08 14:03:00,81.0,67.2,30.02,ESE,112,0.0,0.0,63,0.00,,,0.00,WUHU21623XXSP,2013-06-08 18:03:00,
2013-06-08 14:08:00,81.5,67.2,30.02,East,90,0.0,0.0,62,0.00,,,0.00,WUHU21623XXSP,2013-06-08 18:08:00,
2013-06-08 14:13:00,82.0,69.5,30.02,South,180,0.0,0.0,66,0.00,,,0.00,WUHU21623XXSP,2013-06-08 18:13:00,
2013-06-08 14:18:00,82.0,69.0,30.02,NNE,22,0.0,0.0,65,0.00,,,0.00,WUHU21623XXSP,2013-06-08 18:18:00,
2013-06-08 14:23:00,81.9,68.0,30.01,SSW,202,0.0,0.0,63,0.00,,,0.00,WUHU21623XXSP,2013-06-08 18:23:00,
2013-06-08 14:28:00,81.5,68.5,30.01,West,270,0.0,0.0,65,0.00,,,0.00,WUHU21623XXSP,2013-06-08 18:28:00,
2013-06-08 14:33:00,81.1,67.3,30.01,WNW,292,0.0,0.0,63,0.00,,,0.00,WUHU21623XXSP,2013-06-08 18:33:00,
2013-06-08 14:38:00,82.0,67.7,30.02,West,270,0.0,0.0,62,0.00,,,0.00,WUHU21623XXSP,2013-06-08 18:38:00,
2013-06-08 14:43:00,81.1,66.9,30.01,East,90,6.6,7.6,62,0.00,,,0.00,WUHU21623XXSP,2013-06-08 18:43:00,
2013-06-08 14:48:00,80.2,67.4,30.01,SSW,202,2.3,7.6,65,0.00,,,0.00,WUHU21623XXSP,2013-06-08 18:48:00,
2013-06-08 14:53:00,79.3,67.4,30.01,NNE,22,0.0,7.6,67,0.00,,,0.00,WUHU21623XXSP,2013-06-08 18:53:00,
2013-06-08 14:59:00,79.2,66.8,30.01,NNE,22,0.0,2.7,66,0.00,,,0.00,WUHU21623XXSP,2013-06-08 18:59:00,
2013-06-08 15:03:00,78.4,67.4,30.01,West,270,2.9,3.3,69,0.00,,,0.00,WUHU21623XXSP,2013-06-08 19:03:00,
2013-06-08 15:05:00,78.4,67.9,30.01,West,270,2.9,3.3,70,0.00,,,0.00,WUHU21623XXSP,2013-06-08 19:05:00,
2013-06-08 15:07:00,78.6,67.6,30.01,East,90,0.0,3.3,69,0.00,,,0.00,WUHU21623XXSP,2013-06-08 19:07:00,
2013-06-08 15:08:00,78.6,67.6,30.01,East,90,0.0,3.3,69,0.00,,,0.00,WUHU21623XXSP,2013-06-08 19:08:00,
2013-06-08 15:10:00,79.0,67.5,30.01,East,90,2.3,3.3,68,0.00,,,0.00,WUHU21623XXSP,2013-06-08 19:10:00,
2013-06-08 15:11:00,79.3,68.3,30.01,ESE,112,0.0,3.3,69,0.00,,,0.00,WUHU21623XXSP,2013-06-08 19:11:00,
2013-06-08 15:13:00,79.9,68.4,30.01,South,180,0.0,3.3,68,0.00,,,0.00,WUHU21623XXSP,2013-06-08 19:13:00,
2013-06-08 15:14:00,79.9,68.4,30.01,South,180,0.0,3.3,68,0.00,,,0.00,WUHU21623XXSP,2013-06-08 19:14:00,
2013-06-08 15:21:00,79.5,67.1,30.01,SSW,202,1.2,2.4,66,0.00,,,0.00,WUHU21623XXSP,2013-06-08 19:21:00,
2013-06-08 15:27:00,79.0,66.6,30.01,North,0,0.0,3.0,66,0.00,,,0.00,WUHU21623XXSP,2013-06-08 19:27:00,
2013-06-08 15:32:00,78.8,67.7,30.01,West,270,0.0,3.0,69,0.00,,,0.00,WUHU21623XXSP,2013-06-08 19:32:00,
2013-06-08 15:37:00,79.0,68.8,30.01,WNW,292,0.0,0.0,71,0.00,,,0.00,WUHU21623XXSP,2013-06-08 19:37:00,
2013-06-08 15:43:00,79.3,67.4,30.00,North,0,0.0,0.0,67,0.00,,,0.00,WUHU21623XXSP,2013-06-08 19:43:00,
2013-06-08 15:48:00,79.2,68.5,30.01,North,0,0.0,0.0,70,0.00,,,0.00,WUHU21623XXSP,2013-06-08 19:48:00,
2013-06-08 15:54:00,78.6,67.6,30.01,North,0,0.0,1.3,69,0.00,,,0.00,WUHU21623XXSP,2013-06-08 19:54:00,
2013-06-08 15:59:00,78.6,68.4,30.01,NNE,22,0.0,1.3,71,0.00,,,0.00,WUHU21623XXSP,2013-06-08 19:59:00,
2013-06-08 16:04:00,78.6,68.8,30.01,North,0,0.0,0.0,72,0.00,,,0.00,WUHU21623XXSP,2013-06-08 20:04:00,
2013-06-08 16:09:00,78.6,68.8,30.01,West,270,0.0,0.0,72,0.00,,,0.00,WUHU21623XXSP,2013-06-08 20:09:00,
2013-06-08 16:16:00,78.6,69.6,30.01,North,0,0.0,0.0,74,0.00,,,0.00,WUHU21623XXSP,2013-06-08 20:16:00,
2013-06-08 16:21:00,78.6,68.4,30.01,North,0,0.0,0.0,71,0.00,,,0.00,WUHU21623XXSP,2013-06-08 20:21:00,
2013-06-08 16:26:00,78.6,68.4,30.01,West,270,0.0,1.7,71,0.00,,,0.00,WUHU21623XXSP,2013-06-08 20:26:00,
2013-06-08 16:31:00,78.6,69.2,30.01,West,270,0.0,1.7,73,0.00,,,0.00,WUHU21623XXSP,2013-06-08 20:31:00,
2013-06-08 16:36:00,78.6,68.4,30.01,South,180,0.0,0.0,71,0.00,,,0.00,WUHU21623XXSP,2013-06-08 20:36:00,
2013-06-08 16:42:00,79.0,67.9,30.01,East,90,0.0,0.0,69,0.00,,,0.00,WUHU21623XXSP,2013-06-08 20:42:00,
2013-06-08 16:47:00,79.2,67.7,30.01,North,0,0.0,0.0,68,0.00,,,0.00,WUHU21623XXSP,2013-06-08 20:47:00,
2013-06-08 16:52:00,79.5,67.6,30.01,SSW,202,0.0,0.0,67,0.00,,,0.00,WUHU21623XXSP,2013-06-08 20:52:00,
2013-06-08 16:57:00,79.2,66.8,30.01,North,0,0.0,0.0,66,0.00,,,0.00,WUHU21623XXSP,2013-06-08 20:57:00,
2013-06-08 17:05:00,79.0,66.6,30.01,North,0,0.0,0.0,66,0.00,,,0.00,WUHU21623XXSP,2013-06-08 21:05:00,
2013-06-08 17:10:00,78.8,67.3,30.01,SSW,202,0.0,0.0,68,0.00,,,0.00,WUHU21623XXSP,2013-06-08 21:10:00,
2013-06-08 17:15:00,79.0,68.4,30.01,West,270,0.0,0.0,70,0.00,,,0.00,WUHU21623XXSP,2013-06-08 21:15:00,
2013-06-08 17:20:00,78.8,68.6,30.01,North,0,0.0,0.0,71,0.00,,,0.00,WUHU21623XXSP,2013-06-08 21:20:00,
2013-06-08 17:25:00,78.6,68.4,30.01,South,180,0.0,0.0,71,0.00,,,0.00,WUHU21623XXSP,2013-06-08 21:25:00,
2013-06-08 17:30:00,79.0,68.4,30.01,SSW,202,2.1,2.4,70,0.00,,,0.00,WUHU21623XXSP,2013-06-08 21:30:00,
2013-06-08 17:35:00,79.2,67.2,30.00,NNE,22,0.0,2.4,67,0.00,,,0.00,WUHU21623XXSP,2013-06-08 21:35:00,
2013-06-08 17:40:00,79.2,66.8,30.00,West,270,0.0,2.4,66,0.00,,,0.00,WUHU21623XXSP,2013-06-08 21:40:00,
2013-06-08 17:45:00,79.0,66.2,30.00,ESE,112,1.2,1.3,65,0.00,,,0.00,WUHU21623XXSP,2013-06-08 21:45:00,
2013-06-08 17:50:00,78.6,67.1,30.00,West,270,0.0,1.3,68,0.00,,,0.00,WUHU21623XXSP,2013-06-08 21:50:00,
2013-06-08 17:55:00,78.1,67.5,30.00,NNE,22,0.0,1.3,70,0.00,,,0.00,WUHU21623XXSP,2013-06-08 21:55:00,
2013-06-08 18:00:00,77.9,66.5,30.00,West,270,0.0,0.0,68,0.00,,,0.00,WUHU21623XXSP,2013-06-08 22:00:00,
2013-06-08 18:05:00,78.4,67.4,30.00,West,270,0.0,0.0,69,0.00,,,0.00,WUHU21623XXSP,2013-06-08 22:05:00,
2013-06-08 18:10:00,78.6,68.0,30.00,ESE,112,1.2,3.8,70,0.00,,,0.00,WUHU21623XXSP,2013-06-08 22:10:00,
2013-06-08 18:15:00,78.1,67.5,30.00,North,0,0.0,3.8,70,0.00,,,0.00,WUHU21623XXSP,2013-06-08 22:15:00,
2013-06-08 18:20:00,78.1,67.9,30.00,North,0,0.0,1.3,71,0.00,,,0.00,WUHU21623XXSP,2013-06-08 22:20:00,
2013-06-08 18:25:00,78.3,68.5,30.00,WNW,292,0.0,0.0,72,0.00,,,0.00,WUHU21623XXSP,2013-06-08 22:25:00,
2013-06-08 18:30:00,78.4,67.0,30.00,SSW,202,0.0,1.3,68,0.00,,,0.00,WUHU21623XXSP,2013-06-08 22:30:00,
2013-06-08 18:35:00,78.6,67.6,30.00,NNE,22,0.0,1.3,69,0.00,,,0.00,WUHU21623XXSP,2013-06-08 22:35:00,
2013-06-08 18:40:00,78.4,67.4,30.00,WNW,292,0.0,0.0,69,0.00,,,0.00,WUHU21623XXSP,2013-06-08 22:40:00,
2013-06-08 18:45:00,78.1,68.3,30.00,North,0,0.0,0.0,72,0.00,,,0.00,WUHU21623XXSP,2013-06-08 22:45:00,
2013-06-08 18:50:00,78.1,67.9,30.00,SSW,202,0.0,0.0,71,0.00,,,0.00,WUHU21623XXSP,2013-06-08 22:50:00,
2013-06-08 18:55:00,78.1,67.5,30.01,ESE,112,0.0,0.0,70,0.00,,,0.00,WUHU21623XXSP,2013-06-08 22:55:00,
2013-06-08 19:00:00,78.1,66.7,30.00,ESE,112,0.0,1.7,68,0.00,,,0.00,WUHU21623XXSP,2013-06-08 23:00:00,
2013-06-08 19:05:00,78.3,67.2,30.00,South,180,0.0,1.7,69,0.00,,,0.00,WUHU21623XXSP,2013-06-08 23:05:00,
2013-06-08 19:10:00,78.3,67.7,30.00,SSW,202,1.4,1.7,70,0.00,,,0.00,WUHU21623XXSP,2013-06-08 23:10:00,
2013-06-08 19:15:00,78.4,67.4,30.00,SSW,202,0.0,1.7,69,0.00,,,0.00,WUHU21623XXSP,2013-06-08 23:15:00,
2013-06-08 19:20:00,78.3,67.2,30.01,East,90,0.0,1.7,69,0.00,,,0.00,WUHU21623XXSP,2013-06-08 23:20:00,
2013-06-08 19:25:00,78.4,67.9,30.01,West,270,0.0,1.7,70,0.00,,,0.00,WUHU21623XXSP,2013-06-08 23:25:00,
2013-06-08 19:30:00,78.1,67.5,30.01,South,180,0.0,0.0,70,0.00,,,0.00,WUHU21623XXSP,2013-06-08 23:30:00,
2013-06-08 19:35:00,78.1,67.5,30.02,South,180,0.0,0.0,70,0.00,,,0.00,WUHU21623XXSP,2013-06-08 23:35:00,
2013-06-08 19:40:00,77.4,67.3,30.02,SSW,202,0.0,0.0,71,0.00,,,0.00,WUHU21623XXSP,2013-06-08 23:40:00,
2013-06-08 19:45:00,77.4,68.0,30.02,South,180,0.0,0.0,73,0.00,,,0.00,WUHU21623XXSP,2013-06-08 23:45:00,
2013-06-08 19:50:00,77.4,68.4,30.02,SSW,202,0.0,0.0,74,0.00,,,0.00,WUHU21623XXSP,2013-06-08 23:50:00,
2013-06-08 19:55:00,77.2,68.6,30.02,East,90,0.0,0.0,75,0.00,,,0.00,WUHU21623XXSP,2013-06-08 23:55:00,
2013-06-08 20:00:00,77.2,68.2,30.02,SSW,202,0.0,0.0,74,0.00,,,0.00,WUHU21623XXSP,2013-06-09 00:00:00,
2013-06-08 20:05:00,76.8,67.9,30.02,West,270,0.0,0.0,74,0.00,,,0.00,WUHU21623XXSP,2013-06-09 00:05:00,
2013-06-08 20:10:00,76.8,67.1,30.02,SSW,202,1.4,1.7,72,0.00,,,0.00,WUHU21623XXSP,2013-06-09 00:10:00,
2013-06-08 20:15:00,76.3,67.0,30.03,SSW,202,0.0,1.7,73,0.00,,,0.00,WUHU21623XXSP,2013-06-09 00:15:00,
2013-06-08 20:20:00,75.9,67.0,30.03,SSW,202,0.0,1.3,74,0.00,,,0.00,WUHU21623XXSP,2013-06-09 00:20:00,
2013-06-08 20:25:00,75.7,67.2,30.03,South,180,0.0,1.3,75,0.00,,,0.00,WUHU21623XXSP,2013-06-09 00:25:00,
2013-06-08 20:30:00,75.4,67.3,30.03,ESE,112,0.0,0.0,76,0.00,,,0.00,WUHU21623XXSP,2013-06-09 00:30:00,
2013-06-08 20:35:00,75.2,67.1,30.03,NNE,22,0.0,0.0,76,0.00,,,0.00,WUHU21623XXSP,2013-06-09 00:35:00,
2013-06-08 20:40:00,74.8,67.2,30.03,ESE,112,0.0,0.0,77,0.00,,,0.00,WUHU21623XXSP,2013-06-09 00:40:00,
2013-06-08 20:45:00,74.5,67.2,30.04,South,180,0.0,0.0,78,0.00,,,0.00,WUHU21623XXSP,2013-06-09 00:45:00,
2013-06-08 20:50:00,74.1,67.2,30.03,ESE,112,0.0,0.0,79,0.00,,,0.00,WUHU21623XXSP,2013-06-09 00:50:00,
2013-06-08 20:55:00,73.8,66.9,30.04,SSW,202,0.0,0.0,79,0.00,,,0.00,WUHU21623XXSP,2013-06-09 00:55:00,
2013-06-08 21:00:00,73.6,66.7,30.04,South,180,0.0,0.0,79,0.00,,,0.00,WUHU21623XXSP,2013-06-09 01:00:00,
2013-06-08 21:05:00,73.2,66.7,30.04,ESE,112,0.0,1.3,80,0.00,,,0.00,WUHU21623XXSP,2013-06-09 01:05:00,
2013-06-08 21:10:00,72.5,66.4,30.04,ESE,112,0.0,1.3,81,0.00,,,0.00,WUHU21623XXSP,2013-06-09 01:10:00,
2013-06-08 21:15:00,72.1,66.0,30.04,ESE,112,0.0,1.3,81,0.00,,,0.00,WUHU21623XXSP,2013-06-09 01:15:00,
2013-06-08 21:20:00,71.8,66.0,30.04,South,180,0.0,0.0,82,0.00,,,0.00,WUHU21623XXSP,2013-06-09 01:20:00,
2013-06-08 21:25:00,71.6,65.8,30.04,South,180,0.0,0.0,82,0.00,,,0.00,WUHU21623XXSP,2013-06-09 01:25:00,
2013-06-08 21:30:00,71.4,65.6,30.05,ESE,112,0.0,1.3,82,0.00,,,0.00,WUHU21623XXSP,2013-06-09 01:30:00,
2013-06-08 21:35:00,71.1,65.6,30.05,ESE,112,0.0,1.3,83,0.00,,,0.00,WUHU21623XXSP,2013-06-09 01:35:00,
2013-06-08 21:40:00,70.5,65.1,30.05,ESE,112,1.2,1.7,83,0.00,,,0.00,WUHU21623XXSP,2013-06-09 01:40:00,
2013-06-08 21:45:00,70.7,65.2,30.05,East,90,2.9,3.3,83,0.00,,,0.00,WUHU21623XXSP,2013-06-09 01:45:00,
2013-06-08 21:50:00,70.9,65.4,30.06,ESE,112,0.0,3.3,83,0.00,,,0.00,WUHU21623XXSP,2013-06-09 01:50:00,
2013-06-08 21:55:00,70.7,65.2,30.06,ESE,112,0.0,3.3,83,0.00,,,0.00,WUHU21623XXSP,2013-06-09 01:55:00,
2013-06-08 22:00:00,70.5,65.1,30.06,ESE,112,0.0,1.3,83,0.00,,,0.00,WUHU21623XXSP,2013-06-09 02:00:00,
2013-06-08 22:05:00,70.3,64.9,30.06,ESE,112,0.0,0.0,83,0.00,,,0.00,WUHU21623XXSP,2013-06-09 02:05:00,
2013-06-08 22:10:00,70.3,64.9,30.06,South,180,0.0,0.0,83,0.00,,,0.00,WUHU21623XXSP,2013-06-09 02:10:00,
2013-06-08 22:15:00,70.3,64.9,30.06,ESE,112,0.0,0.0,83,0.00,,,0.00,WUHU21623XXSP,2013-06-09 02:15:00,
2013-06-08 22:20:00,70.2,64.7,30.07,ESE,112,1.4,1.7,83,0.00,,,0.00,WUHU21623XXSP,2013-06-09 02:20:00,
2013-06-08 22:25:00,69.8,64.3,30.07,ESE,112,1.2,1.9,83,0.00,,,0.00,WUHU21623XXSP,2013-06-09 02:25:00,
2013-06-08 22:30:00,69.6,64.5,30.07,South,180,1.2,1.9,84,0.00,,,0.00,WUHU21623XXSP,2013-06-09 02:30:00,
2013-06-08 22:35:00,69.6,64.5,30.07,North,0,0.0,1.3,84,0.00,,,0.00,WUHU21623XXSP,2013-06-09 02:35:00,
2013-06-08 22:40:00,69.6,64.5,30.07,ESE,112,0.0,1.3,84,0.00,,,0.00,WUHU21623XXSP,2013-06-09 02:40:00,
2013-06-08 22:45:00,69.6,64.5,30.07,ESE,112,0.0,0.0,84,0.00,,,0.00,WUHU21623XXSP,2013-06-09 02:45:00,
2013-06-08 22:50:00,69.4,64.3,30.07,ESE,112,0.0,0.0,84,0.00,,,0.00,WUHU21623XXSP,2013-06-09 02:50:00,
2013-06-08 22:55:00,69.1,64.3,30.07,ESE,112,0.0,0.0,85,0.00,,,0.00,WUHU21623XXSP,2013-06-09 02:55:00,
2013-06-08 23:00:00,68.7,64.0,30.08,ESE,112,0.0,0.0,85,0.00,,,0.00,WUHU21623XXSP,2013-06-09 03:00:00,
2013-06-08 23:05:00,68.5,63.8,30.08,NNE,22,0.0,0.0,85,0.00,,,0.00,WUHU21623XXSP,2013-06-09 03:05:00,
2013-06-08 23:10:00,68.2,63.5,30.08,ESE,112,0.0,0.0,85,0.00,,,0.00,WUHU21623XXSP,2013-06-09 03:10:00,
2013-06-08 23:15:00,67.8,63.5,30.08,ESE,112,0.0,0.0,86,0.00,,,0.00,WUHU21623XXSP,2013-06-09 03:15:00,
2013-06-08 23:20:00,67.8,63.5,30.08,North,0,0.0,0.0,86,0.00,,,0.00,WUHU21623XXSP,2013-06-09 03:20:00,
2013-06-08 23:25:00,67.6,63.6,30.08,ESE,112,1.4,1.7,87,0.00,,,0.00,WUHU21623XXSP,2013-06-09 03:25:00,
2013-06-08 23:30:00,67.5,63.4,30.08,South,180,0.0,1.7,87,0.00,,,0.00,WUHU21623XXSP,2013-06-09 03:30:00,
2013-06-08 23:35:00,67.5,63.4,30.09,East,90,0.0,1.7,87,0.00,,,0.00,WUHU21623XXSP,2013-06-09 03:35:00,
2013-06-08 23:40:00,67.3,63.2,30.09,ESE,112,0.0,0.0,87,0.00,,,0.00,WUHU21623XXSP,2013-06-09 03:40:00,
2013-06-08 23:45:00,67.1,63.1,30.09,ESE,112,0.0,0.0,87,0.00,,,0.00,WUHU21623XXSP,2013-06-09 03:45:00,
2013-06-08 23:50:00,66.9,62.9,30.09,ESE,112,0.0,0.0,87,0.00,,,0.00,WUHU21623XXSP,2013-06-09 03:50:00,
2013-06-08 23:55:00,66.9,62.9,30.09,ESE,112,0.0,0.0,87,0.00,,,0.00,WUHU21623XXSP,2013-06-09 03:55:00,